Regional Weather Roundup
Issued by NWS

Home | Current Version | Previous Version | Graphics & Text | Print | Product List | Glossary Off
Versions: 1 2 3 4 5 6 7 8 9 10 11 12 13 14 15 16 17 18 19 20 21 22 23 24 25 26 27

000
ASUS43 KDMX 231607
RWRIA

WEATHER ROUNDUP FOR IOWA
NATIONAL WEATHER SERVICE DES MOINES IA
1100 AM CDT WED APR 23 2014

NOTE: "FAIR" INDICATES FEW OR NO CLOUDS BELOW 12,000 FEET WITH NO
SIGNIFICANT WEATHER AND/OR OBSTRUCTIONS TO VISIBILITY.

* - THESE STATIONS ARE NOT NWS STATIONS...THUS NOT UNDER NWS
QUALITY CONTROL.  THEY ALSO DO NOT REPORT WEATHER SUCH
AS PRECIPITATION OR FOG.

IAZ001>003-012>014-020>022-031>034-043>046-231700-
   NORTHWEST IOWA

CITY           SKY/WX    TMP DP  RH WIND       PRES   REMARKS
CARROLL *      LGT RAIN  46  39  76 SE20      29.95F
CHEROKEE *     CLOUDY    48  37  66 SE18G25   29.89R
DENISON *      CLOUDY    46  39  76 SE22G31   29.88F
LE MARS *      CLOUDY    54  37  54 SE26G43   29.82F
ORANGE CITY *  PTSUNNY   52  34  50 SE18G32   29.84F
SHELDON *      CLOUDY    52  36  54 SE24G37   29.85F
SIOUX CITY     CLOUDY    53  42  66 SE29G43   29.80F
SPENCER        CLOUDY    50  30  46 SE28G38   29.89F
STORM LAKE *   PTSUNNY   46  36  66 SE29G36   29.90F
$$

IAZ055>058-069>071-079>083-090>094-231700-
   SOUTHWEST IOWA

CITY           SKY/WX    TMP DP  RH WIND       PRES   REMARKS
ATLANTIC *     CLOUDY    48  39  71 SE17G24   29.95S HAZE
AUDUBON *      DRIZZLE   46  37  71 SE12      29.96F
CLARINDA *     CLOUDY    50  41  71 SE13G18   29.96F
COUNCIL BLFS * CLOUDY    48  45  87 SE25G35   29.86F
CRESTON *      CLOUDY    48  39  71 SE20      29.97F
HARLAN  *      CLOUDY    46  41  81 SE18G29   29.94F HAZE
LAMONI         LGT RAIN  52  33  48 SE10      30.02F
RED OAK *      CLOUDY    50  41  71 SE14G23   29.92F
SHENANDOAH *   PTSUNNY   50  41  71 SE22G28   29.91F
$$

IAZ047>049-059>061-072>074-084-231700-
   CENTRAL IOWA

CITY           SKY/WX    TMP DP  RH WIND       PRES   REMARKS
AMES           CLOUDY    50  33  52 SE18G26   30.04F
ANKENY *       PTSUNNY   52  34  50 SE21      30.04F
CHARITON *     MOSUNNY   50  36  57 SE16G22   30.05S
DES MOINES     CLOUDY    54  33  45 SE17      30.05S
GRINNELL*      CLOUDY    48  32  53 SE20G25   30.08F
KNOXVILLE *    CLOUDY    48  32  53 SE18      30.05F
MARSHALLTOWN   CLOUDY    49  31  49 SE22G29   30.06F
NEWTON *       PTSUNNY   50  32  50 SE23      30.06F
PELLA *        CLOUDY    50  34  53 SE13G20   30.08F
PERRY *        DRIZZLE   50  34  53 SE20G28   29.99F
$$

IAZ004>006-015-016-023>025-035-036-231700-
   NORTH CENTRAL IOWA

CITY           SKY/WX    TMP DP  RH WIND       PRES   REMARKS
ALGONA *       CLOUDY    50  32  50 SE24G31   29.98S
CLARION *      SUNNY     52  32  46 SE25G33   30.01F
ESTHERVILLE    CLOUDY    49  32  52 SE28G38   29.92F
FORT DODGE *   CLOUDY    52  30  43 SE13G22   30.00F
MASON CITY     CLOUDY    46  32  58 SE24G33   30.07F
FOREST CITY *  PTSUNNY   46  32  57 SE20G29   30.03F
IOWA FALLS *   CLOUDY    48  32  53 SE22G29   30.05F
$$

IAZ007>011-017>019-026>030-037>042-050>054-066-231700-
   NORTHEAST IOWA

CITY           SKY/WX    TMP DP  RH WIND       PRES   REMARKS
CEDAR RAPIDS   CLOUDY    47  32  56 SE15      30.12F
CHARLES CITY * PTSUNNY   45  30  57 SE22      30.10S
CLINTON *      CLOUDY    46  28  49 SE10      30.21S
DECORAH *      CLOUDY    45  28  53 SE10G16   30.12S
DUBUQUE        CLOUDY    44  29  55 SE9       30.16S
MONTICELLO *   PTSUNNY   45  30  57 SE14      30.14F
OELWEIN *      PTSUNNY  N/A N/A N/A SE16G24   30.12F
WATERLOO       CLOUDY    48  30  49 SE17G24   30.09F
$$

IAZ064-065-067-068-078-231700-
   EAST CENTRAL IOWA

CITY           SKY/WX    TMP DP  RH WIND       PRES   REMARKS
DAVENPORT      CLOUDY    47  30  51 SE13      30.16F
IOWA CITY      CLOUDY    48  31  51 SE15      30.15F
MT. PLEASANT * CLOUDY    52  28  40 SE13      30.14F
MUSCATINE *    MOSUNNY   50  30  46 E12       30.15F
QUAD CITIES    CLOUDY    48  29  47 E13       30.16F
$$

IAZ062-063-075>077-085>089-095>099-231700-
   SOUTHEAST IOWA

CITY           SKY/WX    TMP DP  RH WIND       PRES   REMARKS
BURLINGTON     PTSUNNY   52  32  46 SE10      30.14S
FAIRFIELD *    MOSUNNY   50  30  46 SE18G24   30.11F
FORT MADISON * MOSUNNY   52  32  46 E12G18    30.14F
KEOKUK *       MOSUNNY   52  34  50 E12       30.13R
OSKALOOSA *    CLOUDY    50  32  50 SE17      30.11R
CENTERVILLE *  MOSUNNY   46  37  71 E14       30.09F
OTTUMWA        CLOUDY    49  32  52 SE14      30.10R
WASHINGTON *   PTSUNNY   52  30  43 SE18G24   30.13F
$$

ABBREVIATIONS USED IN REMARKS
   TC - TEMPERATURES IN CELSIUS
  WCI - WIND CHILL INDEX
   HX - HEAT INDEX
  VSB - VISIBILITY
$$




USA.gov is the U.S. government's official web portal to all federal, state and local government web resources and services.